Printer-friendly version

IAU Minor Planet Center

Minor Planet Center

MPEC 1996-R04: 1996 KV1

The following Minor Planet Electronic Circular may be linked-to from your own Web pages, but must not otherwise be redistributed electronically.


Read MPEC 1996-R03 Read MPEC 1996-R05


M.P.E.C. 1996-R04                                Issued 1996 Sept. 6, 20:55 UT

     The Minor Planet Electronic Circulars contain information on unusual
         minor planets and routine data on comets.  They are published
   on behalf of Commission 20 of the International Astronomical Union by the
          Minor Planet Center, Smithsonian Astrophysical Observatory,
                          Cambridge, MA 02138, U.S.A.

             BMARSDEN@CFA.HARVARD.EDU or GWILLIAMS@CFA.HARVARD.EDU

                                   1996 KV1

                           Revision to MPEC 1996-L01

Observations:
     J96K01V  C1996 08 15.92429 16 45 38.08 -19 40 45.5                      950
     J96K01V  C1996 08 16.93607 16 45 37.12 -19 40 49.3                      950

Observer details:
950 La Palma.  Observers P. Magnusson, J. Lagerros.  Measurers M. Dahlgren,
    P. Magnusson.  2.5-m Nordic Optical Telescope.

Orbital elements:
1996 KV1
Perihelic orbit, eccentricity assumed
Epoch 1996 June 26.0 TT = JDT 2450260.5                 Marsden
M   0.12489              (2000.0)            P               Q
n   0.00349960     Peri.  161.49092     -0.28340469     +0.94778534
a  42.9659147      Node    91.84146     -0.89730869     -0.20826366
e   0.0413853      Incl.    8.41319     -0.33840642     -0.24151438
P 282              H    7.0           G   0.15
From 11 observations 1996 May 21-Aug. 16.

Ephemeris:
1996 KV1                 a,e,i = 42.97, 0.04, 8                  q = 41.188
Date    TT    R. A. (2000) Decl.     Delta      r     Elong.  Phase     V
1996 09 04    16 45.62   -19 42.6   41.163   41.188    90.7     1.4    23.3
1996 09 14    16 45.85   -19 44.0   41.332   41.188    81.1     1.4    23.3
1996 09 24    16 46.26   -19 45.6   41.497   41.188    71.4     1.3    23.3
1996 10 04    16 46.82   -19 47.5   41.652   41.188    61.7     1.2    23.3

Brian G. Marsden             (C) Copyright 1996 MPC           M.P.E.C. 1996-R04

Read MPEC 1996-R03 Read MPEC 1996-R05


Our Web policy. Index to the CBAT/MPC/ICQ pages.


Valid HTML 4.01!